DAL1156 KDCA-KEWR

Flight info

Callsign DAL1156
Flight time N/A
Altitude 37000
Route PAVYL3 ESSBE DCT SLT FQM3
Aircraft B738/M-VGDW/C

Departure

Time N/A
Airport Ronald Reagan Washington National Airport (KDCA)

Arrival

Time 2026-04-26 05:03
Airport Newark Liberty International Airport (KEWR)
Time Latitude Longitude Altitude Speed Heading
2026-04-26 03:39 42.21319 -83.35510 643 ft 0 kts 118°
2026-04-26 03:43 42.21324 -83.35523 643 ft 2 kts 121°
2026-04-26 03:43 42.21332 -83.35541 643 ft 2 kts 120°
2026-04-26 03:44 42.21339 -83.35558 643 ft 2 kts 120°
2026-04-26 03:44 42.21347 -83.35575 643 ft 2 kts 120°
2026-04-26 03:44 42.21352 -83.35586 643 ft 0 kts 120°
2026-04-26 03:44 42.21353 -83.35590 643 ft 0 kts 119°
2026-04-26 03:45 42.21350 -83.35581 643 ft 2 kts 119°
2026-04-26 03:45 42.21348 -83.35579 643 ft 1 kts 120°
2026-04-26 03:46 42.21346 -83.35574 643 ft 0 kts 124°
2026-04-26 03:46 42.21341 -83.35571 643 ft 1 kts 169°
2026-04-26 03:46 42.21332 -83.35580 643 ft 1 kts 250°
2026-04-26 03:47 42.21366 -83.35596 643 ft 4 kts 13°
2026-04-26 03:47 42.21424 -83.35563 643 ft 14 kts 31°
2026-04-26 03:47 42.21512 -83.35480 642 ft 15 kts 47°
2026-04-26 03:47 42.21549 -83.35335 639 ft 17 kts 86°
2026-04-26 03:48 42.21549 -83.35165 639 ft 17 kts 105°
2026-04-26 03:48 42.21460 -83.35056 639 ft 17 kts 146°
2026-04-26 03:48 42.21355 -83.34969 639 ft 17 kts 148°
2026-04-26 03:48 42.21244 -83.34916 639 ft 13 kts 195°
2026-04-26 03:49 42.21192 -83.34984 639 ft 10 kts 219°
2026-04-26 03:49 42.21071 -83.35078 639 ft 28 kts 209°
2026-04-26 03:49 42.20913 -83.35196 639 ft 24 kts 210°
2026-04-26 03:49 42.20828 -83.35108 638 ft 21 kts 54°
2026-04-26 03:50 42.21032 -83.34943 638 ft 76 kts 27°
2026-04-26 03:50 42.21812 -83.34360 764 ft 167 kts 29°
2026-04-26 03:50 42.22875 -83.33476 1807 ft 192 kts 30°
2026-04-26 03:50 42.24011 -83.32594 3038 ft 202 kts 34°
2026-04-26 03:51 42.25027 -83.31197 4019 ft 221 kts 50°
2026-04-26 03:51 42.25995 -83.29550 5067 ft 234 kts 49°
2026-04-26 03:51 42.27063 -83.27826 6069 ft 250 kts 48°
2026-04-26 03:51 42.28209 -83.26007 6996 ft 267 kts 48°
2026-04-26 03:52 42.29452 -83.24037 7316 ft 284 kts 48°
2026-04-26 03:52 42.30725 -83.22015 7351 ft 278 kts 48°
2026-04-26 03:52 42.31749 -83.19734 7743 ft 300 kts 73°
2026-04-26 03:52 42.31750 -83.16966 9141 ft 303 kts 102°
2026-04-26 03:53 42.31055 -83.14372 10609 ft 298 kts 111°
2026-04-26 03:53 42.30242 -83.11777 11550 ft 311 kts 112°
2026-04-26 03:53 42.29382 -83.09053 12375 ft 327 kts 112°
2026-04-26 03:53 42.28458 -83.06150 13166 ft 344 kts 112°
2026-04-26 03:54 42.27497 -83.03150 14065 ft 356 kts 112°
2026-04-26 03:54 42.26514 -83.00095 15059 ft 363 kts 113°
2026-04-26 03:54 42.25503 -82.96954 16086 ft 369 kts 113°
2026-04-26 03:54 42.24484 -82.93797 17090 ft 375 kts 113°
2026-04-26 03:55 42.23440 -82.90565 18046 ft 381 kts 114°
2026-04-26 03:55 42.22379 -82.87285 18982 ft 387 kts 114°
2026-04-26 03:55 42.21298 -82.83944 19891 ft 392 kts 114°
2026-04-26 03:55 42.20207 -82.80583 20708 ft 399 kts 114°
2026-04-26 03:56 42.19092 -82.77151 21558 ft 405 kts 115°
2026-04-26 03:56 42.17962 -82.73676 22374 ft 410 kts 115°
2026-04-26 03:56 42.16818 -82.70164 23142 ft 416 kts 115°
2026-04-26 03:56 42.15726 -82.66512 23900 ft 423 kts 111°
2026-04-26 03:57 42.14907 -82.62734 24668 ft 428 kts 104°
2026-04-26 03:57 42.14444 -82.58730 25374 ft 435 kts 96°
2026-04-26 03:57 42.14294 -82.54681 26060 ft 441 kts 92°
2026-04-26 03:57 42.14257 -82.50539 26743 ft 445 kts 91°
2026-04-26 03:58 42.14216 -82.46349 27383 ft 450 kts 94°
2026-04-26 03:58 42.13934 -82.42145 27988 ft 454 kts 99°
2026-04-26 03:58 42.13475 -82.37997 28619 ft 457 kts 101°
2026-04-26 03:58 42.12942 -82.33736 29208 ft 462 kts 102°
2026-04-26 03:59 42.12396 -82.29491 29804 ft 465 kts 102°
2026-04-26 03:59 42.11847 -82.25226 30425 ft 468 kts 102°
2026-04-26 03:59 42.11312 -82.21039 31798 ft 450 kts 102°
2026-04-26 03:59 42.10800 -82.16992 33352 ft 428 kts 102°
2026-04-26 04:00 42.10321 -82.13203 34831 ft 407 kts 102°
2026-04-26 04:00 42.09849 -82.09515 35325 ft 406 kts 102°
2026-04-26 04:00 42.09364 -82.05775 35362 ft 406 kts 102°
2026-04-26 04:01 42.08418 -81.98415 35364 ft 395 kts 102°
2026-04-26 04:01 42.07480 -81.91136 35364 ft 396 kts 102°
2026-04-26 04:02 42.06534 -81.83844 35364 ft 397 kts 102°
2026-04-26 04:02 42.05590 -81.76562 35364 ft 397 kts 102°
2026-04-26 04:03 42.04671 -81.69269 35363 ft 397 kts 102°
2026-04-26 04:03 42.03751 -81.61966 35363 ft 397 kts 102°
2026-04-26 04:04 42.02823 -81.54658 35363 ft 397 kts 102°
2026-04-26 04:04 42.01889 -81.47358 35363 ft 398 kts 102°
2026-04-26 04:05 42.00955 -81.40079 35363 ft 397 kts 102°
2026-04-26 04:05 42.00013 -81.32783 35363 ft 397 kts 102°
2026-04-26 04:06 41.99052 -81.25409 35365 ft 411 kts 102°
2026-04-26 04:06 41.98046 -81.17731 35362 ft 421 kts 102°
2026-04-26 04:07 41.97042 -81.10073 35363 ft 418 kts 103°
2026-04-26 04:07 41.96028 -81.02385 35364 ft 419 kts 103°
2026-04-26 04:08 41.95011 -80.94716 35364 ft 418 kts 102°
2026-04-26 04:08 41.93988 -80.87054 35365 ft 422 kts 102°
2026-04-26 04:09 41.92946 -80.79285 35363 ft 424 kts 102°
2026-04-26 04:09 41.91905 -80.71555 35364 ft 418 kts 102°
2026-04-26 04:10 41.90868 -80.63899 35365 ft 419 kts 103°
2026-04-26 04:10 41.89823 -80.56233 35365 ft 419 kts 102°
2026-04-26 04:11 41.88775 -80.48586 35365 ft 420 kts 102°
2026-04-26 04:11 41.87716 -80.40898 35365 ft 418 kts 102°
2026-04-26 04:12 41.86663 -80.33290 35366 ft 418 kts 103°
2026-04-26 04:12 41.85598 -80.25641 35366 ft 419 kts 103°
2026-04-26 04:13 41.84527 -80.17979 35367 ft 419 kts 103°
2026-04-26 04:13 41.83458 -80.10367 35367 ft 418 kts 103°
2026-04-26 04:14 41.82376 -80.02709 35368 ft 419 kts 103°
2026-04-26 04:14 41.81296 -79.95101 35368 ft 418 kts 103°
2026-04-26 04:15 41.80202 -79.87439 35369 ft 419 kts 103°
2026-04-26 04:15 41.79113 -79.79843 35368 ft 418 kts 103°
2026-04-26 04:16 41.78008 -79.72176 35368 ft 418 kts 103°
2026-04-26 04:16 41.76910 -79.64585 35368 ft 418 kts 103°
2026-04-26 04:17 41.75802 -79.56963 35368 ft 418 kts 103°
2026-04-26 04:17 41.74683 -79.49316 35369 ft 419 kts 103°
2026-04-26 04:18 41.73565 -79.41711 35369 ft 422 kts 103°
2026-04-26 04:18 41.72433 -79.34046 35370 ft 419 kts 104°
2026-04-26 04:19 41.71301 -79.26415 35372 ft 418 kts 104°
2026-04-26 04:19 41.70170 -79.18829 35371 ft 418 kts 103°
2026-04-26 04:20 41.69032 -79.11235 35371 ft 418 kts 103°
2026-04-26 04:20 41.67889 -79.03640 35371 ft 419 kts 104°
2026-04-26 04:21 41.66739 -78.96034 35371 ft 418 kts 103°
2026-04-26 04:21 41.65580 -78.88412 35371 ft 418 kts 103°
2026-04-26 04:22 41.64418 -78.80804 35372 ft 419 kts 104°
2026-04-26 04:22 41.63261 -78.73258 35372 ft 417 kts 103°
2026-04-26 04:23 41.62093 -78.65675 35372 ft 420 kts 103°
2026-04-26 04:23 41.60919 -78.58089 35372 ft 418 kts 104°
2026-04-26 04:24 41.59738 -78.50494 35372 ft 419 kts 104°
2026-04-26 04:24 41.58554 -78.42921 35371 ft 418 kts 103°
2026-04-26 04:25 41.57365 -78.35341 35371 ft 419 kts 103°
2026-04-26 04:25 41.56167 -78.27743 35370 ft 418 kts 104°
2026-04-26 04:26 41.54975 -78.20221 35369 ft 418 kts 104°
2026-04-26 04:26 41.53770 -78.12653 35370 ft 418 kts 104°
2026-04-26 04:27 41.52557 -78.05064 35371 ft 418 kts 104°
2026-04-26 04:27 41.51344 -77.97498 35372 ft 418 kts 104°
2026-04-26 04:28 41.50233 -77.89917 35372 ft 419 kts 103°
2026-04-26 04:28 41.49184 -77.82310 35371 ft 419 kts 103°
2026-04-26 04:29 41.48105 -77.74665 35370 ft 422 kts 103°
2026-04-26 04:29 41.47024 -77.67059 35371 ft 418 kts 103°
2026-04-26 04:30 41.45937 -77.59466 35372 ft 419 kts 103°
2026-04-26 04:30 41.44843 -77.51871 35372 ft 419 kts 103°
2026-04-26 04:31 41.43747 -77.44295 35372 ft 419 kts 103°
2026-04-26 04:31 41.42644 -77.36707 35371 ft 419 kts 103°
2026-04-26 04:32 41.41533 -77.29106 35368 ft 418 kts 103°
2026-04-26 04:32 41.40417 -77.21510 35367 ft 418 kts 103°
2026-04-26 04:33 41.39306 -77.13975 35368 ft 419 kts 103°
2026-04-26 04:33 41.38183 -77.06405 35368 ft 418 kts 103°
2026-04-26 04:34 41.37054 -76.98825 35368 ft 418 kts 104°
2026-04-26 04:34 41.35920 -76.91252 35367 ft 419 kts 103°
2026-04-26 04:35 41.34782 -76.83682 35367 ft 418 kts 103°
2026-04-26 04:35 41.33493 -76.76196 35366 ft 417 kts 108°
2026-04-26 04:36 41.31611 -76.68927 35367 ft 416 kts 111°
2026-04-26 04:36 41.29649 -76.61708 35367 ft 417 kts 111°
2026-04-26 04:37 41.27701 -76.54475 35368 ft 420 kts 111°
2026-04-26 04:37 41.25753 -76.47245 35368 ft 416 kts 110°
2026-04-26 04:38 41.23809 -76.40034 35368 ft 417 kts 110°
2026-04-26 04:38 41.21854 -76.32807 35368 ft 416 kts 111°
2026-04-26 04:39 41.19898 -76.25592 35368 ft 416 kts 111°
2026-04-26 04:39 41.17939 -76.18388 35367 ft 416 kts 111°
2026-04-26 04:39 41.16972 -76.14836 35366 ft 405 kts 111°
2026-04-26 04:40 41.16032 -76.11382 35172 ft 392 kts 111°
2026-04-26 04:40 41.15115 -76.08022 34631 ft 388 kts 111°
2026-04-26 04:40 41.14197 -76.04672 33994 ft 386 kts 111°
2026-04-26 04:40 41.13285 -76.01345 33323 ft 385 kts 111°
2026-04-26 04:41 41.12384 -75.98068 32636 ft 387 kts 112°
2026-04-26 04:41 41.11459 -75.94703 31918 ft 391 kts 112°
2026-04-26 04:41 41.10525 -75.91314 31159 ft 396 kts 112°
2026-04-26 04:41 41.09575 -75.87872 30367 ft 400 kts 113°
2026-04-26 04:42 41.08624 -75.84429 29682 ft 404 kts 113°
2026-04-26 04:42 41.07652 -75.80920 29148 ft 414 kts 113°
2026-04-26 04:42 41.06648 -75.77299 28586 ft 416 kts 112°
2026-04-26 04:42 41.05662 -75.73743 27693 ft 422 kts 112°
2026-04-26 04:43 41.04644 -75.70074 26980 ft 422 kts 112°
2026-04-26 04:43 41.03634 -75.66441 26360 ft 429 kts 112°
2026-04-26 04:43 41.02599 -75.62727 25704 ft 436 kts 112°
2026-04-26 04:43 41.01541 -75.58929 25025 ft 434 kts 112°
2026-04-26 04:44 41.00519 -75.55263 24366 ft 429 kts 111°
2026-04-26 04:44 40.99490 -75.51576 23703 ft 425 kts 111°
2026-04-26 04:44 40.98461 -75.47890 23039 ft 420 kts 111°
2026-04-26 04:44 40.97458 -75.44309 22390 ft 416 kts 111°
2026-04-26 04:45 40.96411 -75.40791 21757 ft 410 kts 115°
2026-04-26 04:45 40.95173 -75.37449 20988 ft 409 kts 118°
2026-04-26 04:45 40.93835 -75.34140 20207 ft 407 kts 119°
2026-04-26 04:45 40.92506 -75.30877 19424 ft 405 kts 119°
2026-04-26 04:46 40.91183 -75.27609 18724 ft 400 kts 119°
2026-04-26 04:46 40.89780 -75.24469 18240 ft 390 kts 122°
2026-04-26 04:46 40.88345 -75.21478 17619 ft 385 kts 123°
2026-04-26 04:46 40.86912 -75.18540 16980 ft 381 kts 123°
2026-04-26 04:47 40.85475 -75.15609 16356 ft 376 kts 123°
2026-04-26 04:47 40.84078 -75.12775 15757 ft 371 kts 123°
2026-04-26 04:47 40.82660 -75.09914 15153 ft 366 kts 123°
2026-04-26 04:47 40.81276 -75.07139 14560 ft 362 kts 123°
2026-04-26 04:48 40.78540 -75.01696 13392 ft 353 kts 123°
2026-04-26 04:48 40.77199 -74.99046 12818 ft 349 kts 123°
2026-04-26 04:48 40.75855 -74.96394 12244 ft 345 kts 123°
2026-04-26 04:49 40.74555 -74.93771 11676 ft 341 kts 121°
2026-04-26 04:49 40.73329 -74.91119 11127 ft 337 kts 120°
2026-04-26 04:49 40.72134 -74.88492 10785 ft 327 kts 120°
2026-04-26 04:49 40.70989 -74.85992 10627 ft 312 kts 120°
2026-04-26 04:50 40.69894 -74.83614 10510 ft 298 kts 120°
2026-04-26 04:50 40.68850 -74.81349 10371 ft 286 kts 120°
2026-04-26 04:50 40.67821 -74.79117 10040 ft 282 kts 120°
2026-04-26 04:50 40.66779 -74.76948 9661 ft 280 kts 122°
2026-04-26 04:51 40.65697 -74.74850 9313 ft 278 kts 122°
2026-04-26 04:51 40.64602 -74.72749 8965 ft 275 kts 122°
2026-04-26 04:51 40.63531 -74.70692 8625 ft 272 kts 122°
2026-04-26 04:51 40.62465 -74.68649 8288 ft 269 kts 123°
2026-04-26 04:52 40.61420 -74.66650 7955 ft 267 kts 122°
2026-04-26 04:52 40.60367 -74.64634 7620 ft 264 kts 122°
2026-04-26 04:52 40.59335 -74.62668 7293 ft 262 kts 122°
2026-04-26 04:52 40.58302 -74.60702 6965 ft 260 kts 122°
2026-04-26 04:53 40.57275 -74.58749 6640 ft 258 kts 122°
2026-04-26 04:53 40.56250 -74.56804 6314 ft 256 kts 122°
2026-04-26 04:53 40.55238 -74.54888 5994 ft 254 kts 122°
2026-04-26 04:53 40.54231 -74.52979 5671 ft 252 kts 122°
2026-04-26 04:54 40.53238 -74.51093 5355 ft 251 kts 122°
2026-04-26 04:54 40.52252 -74.49218 5039 ft 249 kts 122°
2026-04-26 04:54 40.51275 -74.47353 4728 ft 248 kts 122°
2026-04-26 04:54 40.50303 -74.45498 4550 ft 240 kts 122°
2026-04-26 04:55 40.49376 -74.43732 4481 ft 229 kts 122°
2026-04-26 04:55 40.48495 -74.42055 4413 ft 219 kts 122°
2026-04-26 04:55 40.47748 -74.40346 4341 ft 210 kts 103°
2026-04-26 04:55 40.47743 -74.38556 4306 ft 188 kts 66°
2026-04-26 04:56 40.48320 -74.37126 4257 ft 171 kts 57°
2026-04-26 04:56 40.48877 -74.35824 4215 ft 159 kts 57°
2026-04-26 04:56 40.49400 -74.34569 4199 ft 153 kts 58°
2026-04-26 04:56 40.49908 -74.33355 4199 ft 149 kts 58°
2026-04-26 04:57 40.50399 -74.32172 4214 ft 145 kts 57°
2026-04-26 04:57 40.50860 -74.31044 4319 ft 144 kts 58°
2026-04-26 04:57 40.51403 -74.29889 4131 ft 146 kts 50°
2026-04-26 04:57 40.52011 -74.28783 3661 ft 152 kts 52°
2026-04-26 04:58 40.52582 -74.27647 3330 ft 144 kts 54°
2026-04-26 04:58 40.53193 -74.26664 3105 ft 138 kts 38°
2026-04-26 04:58 40.53971 -74.25943 2915 ft 136 kts 25°
2026-04-26 04:58 40.54827 -74.25470 2764 ft 130 kts 13°
2026-04-26 04:59 40.55672 -74.25047 2651 ft 127 kts 19°
2026-04-26 04:59 40.56485 -74.24601 2510 ft 125 kts 21°
2026-04-26 04:59 40.57301 -74.24124 2366 ft 130 kts 24°
2026-04-26 04:59 40.58118 -74.23607 2193 ft 131 kts 24°
2026-04-26 05:00 40.58940 -74.23063 2014 ft 134 kts 26°
2026-04-26 05:00 40.59765 -74.22504 1822 ft 132 kts 26°
2026-04-26 05:00 40.60589 -74.21913 1675 ft 133 kts 27°
2026-04-26 05:00 40.61405 -74.21365 1523 ft 131 kts 24°
2026-04-26 05:01 40.62238 -74.20864 1321 ft 133 kts 22°
2026-04-26 05:01 40.63099 -74.20366 1113 ft 134 kts 22°
2026-04-26 05:01 40.63936 -74.19869 899 ft 131 kts 25°
2026-04-26 05:01 40.64747 -74.19358 715 ft 127 kts 25°
2026-04-26 05:02 40.65537 -74.18834 627 ft 128 kts 26°
2026-04-26 05:02 40.66338 -74.18317 453 ft 128 kts 24°
2026-04-26 05:02 40.67139 -74.17819 242 ft 128 kts 24°
2026-04-26 05:02 40.67939 -74.17313 89 ft 128 kts 25°
2026-04-26 05:03 40.68682 -74.16841 18 ft 102 kts 24°
2026-04-26 05:03 40.69117 -74.16592 17 ft 51 kts
2026-04-26 05:03 40.69312 -74.16604 17 ft 18 kts 355°
2026-04-26 05:03 40.69403 -74.16644 17 ft 13 kts 307°
2026-04-26 05:04 40.69470 -74.16820 18 ft 21 kts 297°
2026-04-26 05:04 40.69525 -74.16969 18 ft 18 kts 286°
2026-04-26 05:04 40.69515 -74.17130 18 ft 14 kts 260°
2026-04-26 05:04 40.69490 -74.17237 18 ft 3 kts 239°
2026-04-26 05:05 40.69476 -74.17266 18 ft 0 kts 237°
2026-04-26 05:05 40.69474 -74.17271 18 ft 0 kts 236°
2026-04-26 05:05 40.69473 -74.17271 18 ft 0 kts 236°